Погода в Шадринске

Погода в Шадринске : погода сейчас, прогноз погоды и архив. Всё, что Вы хотите узнать о погоде в Шадринске!

Хотите узнать прогноз погоды в Шадринске? Тогда Вам сюда: Погода в Шадринске

Поиск расширенной информации на нашем сайте:

Другие новости

Новости СМИ2

Главная страница сайта

Новости сайта

03.07.2017

Напоминаем, что на нашем специализированном сайте Метеоцентр.Азия вы можете получить высокодетализированные автоматические прогнозы погоды по пунктам России, СНГ и мира в авиационном формате (включающие направление и скорость ветра, видимость, явления погоды, количество и форму облачности, нижнюю и верхнюю границу облачности).


Погода в Шадринске - сегодня

Время (UTC), дата Ветер
(°,м/с) 
Видим.   Явления Облачность Т
(°С)
Тd
(°С)
f(%) Тe
(°С)
Pmin
(гПа)
dP
(гПа)
Po
(мм)
O2
(г/м3)
Тmin Tmax R s Состояние
почвы
12 16.06.18 300 (СЗ) 10 км  {ливн. осадки}  9/8 600 м кучево-дожд., верхняя 
[Cb cap|Ci sp]
+11.6 +3.3 57 +11  1008.7  0.1  749  289           
18 16.06.18 220 (ЮЗ) 10 км  {ливн. осадки}  10/8 600 м кучево-дожд., верхняя 
[Cb cap|Ci sp]
+8.1 +5.3 82 +9  1008.4  -0.4  748  292           
21 16.06.18 230 (ЮЗ) 10 км  слаб. дождь  10/10 300 м 
[Frnb|Ns]
+7.8 +5.9 88 +9  1007.7  -0.7  748  292           
00 17.06.18 280 (З) 10 км  {дождь}  8/4 600 м кучево-дожд., средняя, верхняя 
[Cb cap|Ac trans|Ci sp]
+6.1 +4.5 89 +6  1007.1  -0.6  747  294           
03 17.06.18 290 (З) 10 км    8/6 600 м кучево-дожд., средняя, верхняя 
[Cb cap|Ac trans|Ci sp]
+8.7 +6.5 86 +9  1006.3  -0.7  747  290  +6.1      влажная 
06 17.06.18 280 (З) 10 км  в посл. час ливневой дождь  9/9 600 м кучево-дожд. 
[Cb cap]
+11.3 +7.8 79 +11  1006  -0.2  746  287           
09 17.06.18 050 (СВ) 10 км    8/8 600 м кучево-дожд., верхняя 
[Cb cap|Ci ing]
+15.1 +2.4 42 +15  1005.7  -0.2  746  285           
12 17.06.18 020 (С) 10 км    8/8 600 м кучево-дожд. 
[Cb cap]
+16 +4 45 +16  1005.8  0.2  746  284           
18 17.06.18 230 (ЮЗ) 10 км    6/4 600 м кучево-дожд., верхняя 
[Cb cap|Ci sp]
+10 +4.9 71 +11  1005.9  0.5  746  289           
21 17.06.18 290 (З) 10 км    9/9 600 м кучево-дожд. 
[Cb cap]
+9.9 +5.2 73 +10  1004.1  -1.8  745  289           
00 18.06.18 240 (ЮЗ) 10 км  слаб. ливневой дождь  10/10 600 м кучево-дожд. 
[Cb cap]
+9.9 +8 88 +9  1001.6  -2.5  743  288           
03 18.06.18 290 (З) 4{10}  10 км  в посл. час ливневой дождь  10/10 600 м кучево-дожд. 
[Cb cap]
+12.3 +10.7 90 +14  999.5  -2  742  284  +8.7      влажная 
06 18.06.18 300 (СЗ) 10 км  {ливн. осадки}  10/10 600 м кучево-дожд. 
[Cb cap]
+15.8 +12.2 79 +20  999.1  -0.2  742  280           
18 18.06.18 230 (ЮЗ) 10 км    3/3 600 м верхняя 
[Sc|Ci sp]
+10.4 +7.9 84 +12  1002.1  0.1  744  287           
21 18.06.18 260 (З) 10 км    3/0 верхняя 
[Ci sp]
+9.9 +8.3 90 +10  1001.7  -0.3  743  288           
00 19.06.18 270 (З) 10 км    4/3 600 м верхняя 
[Sc|Ci sp]
+9 +7.9 93 +9  1001.5  -0.2  743  288           
03 19.06.18 270 (З) 10 км    3/3 600 м верхняя 
[Sc|Ci sp]
+14.8 +10.8 77 +17  1001.4  0.1  743  282  +8.7        влажная 
06 19.06.18 310 (СЗ) 10 км    8/6 600 м кучево-дожд., средняя, верхняя 
[Cb cap|Ac trans|Ci sp]
+17.5 +10.1 62 +19  1001.7  0.1  743  280           
09 19.06.18 310 (СЗ) 4{11}  10 км    8/6 600 м кучево-дожд., средняя 
[Cb cap|Ac trans]
+19.7 +9.7 52 +21  1001.8  0.2  744  278           
12 19.06.18 350 (С) 4{10}  10 км    6/4 600 м кучево-дожд., средняя, верхняя 
[Cb cap|Ac trans|Ci sp]
+20.3 +8.4 46 +20  1001.7  0.1  744  277           
18 19.06.18 240 (ЮЗ) 10 км    8/6 600 м кучево-дожд., верхняя 
[Cb cap|Ci sp]
+14.2 +10.5 78 +17  1002.4  -0.2  744  283           
21 19.06.18 050 (СВ) 10 км  {гроза, ливн. осадки}  6/4 600 м кучево-дожд., верхняя 
[Cb cap|Ci sp]
+11.7 +9.7 88 +14  1002.4  0.1  744  286           
00 20.06.18 290 (З) 10 км  {гроза, ливн. осадки}  6/3 600 м кучево-дожд., верхняя 
[Cb cap|Ci sp]
+10 +8.8 92 +11  1003.1  0.6  744  288           
03 20.06.18 300 (СЗ) 10 км    6/3 600 м кучево-дожд., верхняя 
[Cb cap|Ci sp]
+15.8 +11.5 76 +20  1003.2  0.3  745  281  +9.5        влажная 
06 20.06.18 280 (З) 10 км    4/4 600 м кучево-дожд. 
[Cb cap]
+21.8 +10.4 48 +24  1002.5  -0.4  744  276           
Время (UTC), дата Ветер
(°,м/с) 
Видим.   Явления Облачность Т
(°С)
Тd
(°С)
f(%) Тe
(°С)
Pmin
(гПа)
dP
(гПа)
Po
(мм)
O2
(г/м3)
Тmin Tmax R s Состояние
почвы

Для получения пояснительной информации подведите курсор к названию столбца.

ПОГОДА в Шадринске - архив

Всё, что Вы хотите узнать о погоде в Шадринске - удобно и подробно!

Выберите нужную дату (начиная с 1 января 2015* года) и нажмите кнопку "Найти".
Будут отображены архивные сводки погоды по пункту Шадринск, начиная с указанной даты.


Отображать данные в формате CSV (для использования в таблицах Excel)


Внимание! Наш архив погоды предназначен исключительно для личного некоммерческого использования в познавательных целях. Если Вам необходимы официальные справки о состоянии погоды (для производственных, юридических, коммерческих и т.п. целей), обращайтесь в органы Росгидромета.

*Примечание: данная дата относится к архиву по метеостанциям СССР (Россия, СНГ, Балтия).
Архив по метеостанциям Зарубежной Европы и Азии (кроме Китая) хранится 10 дней, по другим регионам земного шара (Китай, Африка, Америка, Австралия, Океания) - 1 день.

Шадринск - район местоположения метеостанции


Название, широта, долгота, высота метеостанции:
Шадринск 56.1°ш. 63.6°д. 89 м над ур. моря [Российская Федерация]

Дополнительная информация

В oтличие oт бoльшинства пoгoдных сайтoв мы публикуем пoдрoбную метеoинфoрмацию в детальнoм прoфессиoнальнoм фoрмате.

Характеристики температуры и влажнoсти вoздуха измеряются на высoте 2 м в тени вдали oт зданий и деревьев.
Скoрoсть ветра измеряется на высoте 10 м (на урoвне рoста челoвека скoрoсть ветра ниже в 1.5-2 раза). Если метеoстанция нахoдится в гoрoде или в лесу, тo скoрoсть ветра занижена на 2-4 м/с пo сравнению с oткрытым местoм. Скoрoсть ветра над акватoриями крупных рек и oзёр, а также на вершинах хoлмoв на 2-5 м/с выше, чем в oбычных услoвиях.
Атмoсфернoе давление в разных тoчках местнoсти мoжет значительнo oтличаться oт давления на метеoстанции, в зависимoсти oт услoвий рельефа (при пoдъёме на 10 м давление пoнижается примернo на 1 мм рт.ст.).